Weather History for KBPC - May, 2013

Change the Weather History Date:

Wednesday, May 1, 2013

  Actual Average Record
Temperature  
Mean Temperature 53 °F -  
Max Temperature 71 °F - - ()
Min Temperature 35 °F - - ()
Degree Days  
Heating Degree Days 12    
Growing Degree Days 3 (Base 50)    
Moisture  
Dew Point 41 °F    
Average Humidity 73    
Maximum Humidity 93    
Minimum Humidity 43    
Precipitation  
Precipitation 0.00 in - - ()
Sea Level Pressure  
Sea Level Pressure 30.00 in    
Wind  
Wind Speed 24 mph (North)    
Max Wind Speed 34 mph    
Max Gust Speed 45 mph    
Visibility 9 miles    
Events      
Averages and records for this station are not official NWS values.
T = Trace of Precipitation, MM = Missing Value Source: NWS Daily Summary

Daily Weather History Graph

Daily Weather History Graph

Search for Another Location

Airport or City:

Trip Planner

Search our weather history database for the weather conditions in past years. The results will help you decide how hot, cold, wet, or windy it might be!

Date:

Astronomy

May. 01, 2013 Rise Set
Actual Time 6:51 AM CDT 8:31 PM CDT
Civil Twilight 6:24 AM CDT 8:58 PM CDT
Nautical Twilight 5:51 AM CDT 9:32 PM CDT
Astronomical Twilight 5:16 AM CDT 10:07 PM CDT
Moon 1:41 AM CDT (5/1) 12:31 PM CDT (5/1)
Length of Visible Light 14h 34m
Length of Day
13h 39m
Waning Gibbous, 59% of the Moon is Illuminated
May 1
Waning Gibbous
May 2
Last Quarter
May 9
New
May 17
First Quarter
May 24
Full

Hourly Weather History & Observations

Time (CDT) Temp. Windchill Dew Point Humidity Pressure Visibility Wind Dir Wind Speed Gust Speed Precip Events Conditions
12:15 AM 71.6 °F - 48.2 °F 43% 29.62 in 10.0 mi SSE 31.1 mph 44.9 mph N/A   Clear
12:55 AM 69.8 °F - 51.8 °F 53% 29.63 in 10.0 mi SSE 31.1 mph 41.4 mph N/A   Clear
1:15 AM 69.8 °F - 53.6 °F 56% 29.63 in 10.0 mi SSE 31.1 mph 42.6 mph N/A   Clear
1:35 AM 68.0 °F - 55.4 °F 64% 29.64 in 10.0 mi SSE 29.9 mph 43.7 mph N/A   Clear
1:55 AM 68.0 °F - 55.4 °F 64% 29.64 in 10.0 mi SSE 32.2 mph 39.1 mph N/A   Clear
2:15 AM 68.0 °F - 55.4 °F 64% 29.65 in 10.0 mi SSE 27.6 mph 40.3 mph N/A   Clear
2:35 AM 66.2 °F - 55.4 °F 68% 29.65 in 10.0 mi SSE 27.6 mph 38.0 mph N/A   Clear
2:55 AM 64.4 °F - 55.4 °F 73% 29.66 in 10.0 mi South 25.3 mph 35.7 mph N/A   Clear
3:15 AM 64.4 °F - 55.4 °F 73% 29.67 in 10.0 mi SSE 24.2 mph 28.8 mph N/A   Clear
3:35 AM 64.4 °F - 55.4 °F 73% 29.68 in 10.0 mi South 12.7 mph 27.6 mph N/A   Clear
3:55 AM 62.6 °F - 55.4 °F 77% 29.70 in 10.0 mi Calm Calm - N/A   Clear
4:15 AM 62.6 °F - 55.4 °F 77% 29.70 in 10.0 mi SSE 9.2 mph - N/A   Clear
4:35 AM 62.6 °F - 55.4 °F 77% 29.71 in 10.0 mi South 5.8 mph - N/A   Clear
4:55 AM 60.8 °F - 53.6 °F 77% 29.73 in 10.0 mi West 4.6 mph - N/A   Clear
5:15 AM 59.0 °F - 53.6 °F 82% 29.73 in 10.0 mi Calm Calm - N/A   Clear
5:35 AM 57.2 °F - 51.8 °F 82% 29.73 in 10.0 mi SW 11.5 mph - N/A   Clear
5:55 AM 59.0 °F - 53.6 °F 82% 29.74 in 10.0 mi SW 12.7 mph - N/A   Clear
6:15 AM 59.0 °F - 48.2 °F 67% 29.78 in 10.0 mi WNW 17.3 mph 21.9 mph N/A   Clear
6:35 AM 57.2 °F - 44.6 °F 63% 29.79 in 10.0 mi WNW 15.0 mph 18.4 mph N/A   Clear
6:55 AM 55.4 °F - 41.0 °F 58% 29.81 in 10.0 mi WNW 16.1 mph 20.7 mph N/A   Clear
7:15 AM 53.6 °F - 33.8 °F 47% 29.83 in 5.0 mi WNW 13.8 mph 20.7 mph N/A   Haze
7:35 AM 53.6 °F - 33.8 °F 47% 29.85 in 4.0 mi WNW 13.8 mph 20.7 mph N/A   Haze
7:55 AM 51.8 °F - 35.6 °F 54% 29.87 in 4.0 mi NW 23.0 mph 31.1 mph N/A   Haze
8:15 AM 51.8 °F - 37.4 °F 58% 29.88 in 4.0 mi NNW 24.2 mph 31.1 mph N/A   Haze
8:35 AM 51.8 °F - 37.4 °F 58% 29.89 in 5.0 mi NNW 24.2 mph 40.3 mph N/A   Haze
8:55 AM 51.8 °F - 39.2 °F 62% 29.91 in 7.0 mi NNW 28.8 mph 40.3 mph N/A   Scattered Clouds
9:15 AM 51.8 °F - 39.2 °F 62% 29.93 in 10.0 mi North 26.5 mph 42.6 mph N/A   Overcast
9:35 AM 50.0 °F - 39.2 °F 66% 29.94 in 10.0 mi North 31.1 mph 40.3 mph N/A   Overcast
9:55 AM 50.0 °F - 39.2 °F 66% 29.97 in 10.0 mi NNW 28.8 mph 41.4 mph N/A   Overcast
10:15 AM 48.2 °F - 41.0 °F 76% 29.98 in 10.0 mi NNW 34.5 mph 42.6 mph N/A   Overcast
10:35 AM 48.2 °F - 41.0 °F 76% 29.99 in 10.0 mi North 27.6 mph 41.4 mph N/A   Overcast
10:55 AM 48.2 °F - 41.0 °F 76% 30.00 in 10.0 mi North 24.2 mph 40.3 mph N/A   Overcast
11:15 AM 46.4 °F 37.0 °F 41.0 °F 81% 30.01 in 10.0 mi North 31.1 mph 40.3 mph N/A   Overcast
11:55 AM 46.4 °F 38.1 °F 41.0 °F 81% 30.04 in 10.0 mi North 24.2 mph 39.1 mph N/A   Overcast
12:15 PM 46.4 °F 37.7 °F 41.0 °F 81% 30.05 in 10.0 mi North 26.5 mph 40.3 mph N/A   Overcast
12:35 PM 46.4 °F 37.9 °F 41.0 °F 81% 30.06 in 10.0 mi North 25.3 mph 36.8 mph N/A   Overcast
12:55 PM 46.4 °F 37.7 °F 39.2 °F 76% 30.07 in 10.0 mi North 26.5 mph 34.5 mph N/A   Overcast
1:15 PM 46.4 °F 38.5 °F 39.2 °F 76% 30.09 in 10.0 mi North 21.9 mph 32.2 mph N/A   Overcast
1:35 PM 46.4 °F 38.5 °F 39.2 °F 76% 30.09 in 10.0 mi North 21.9 mph 33.4 mph N/A   Overcast
1:55 PM 46.4 °F 37.9 °F 39.2 °F 76% 30.09 in 10.0 mi North 25.3 mph 35.7 mph N/A   Overcast
2:15 PM 44.6 °F 36.4 °F 37.4 °F 76% 30.10 in 10.0 mi North 20.7 mph 34.5 mph N/A   Overcast
2:35 PM 46.4 °F 37.7 °F 37.4 °F 71% 30.11 in 10.0 mi North 26.5 mph 33.4 mph N/A   Overcast
2:55 PM 46.4 °F 38.1 °F 37.4 °F 71% 30.11 in 10.0 mi North 24.2 mph 31.1 mph N/A   Overcast
3:15 PM 46.4 °F 38.1 °F 37.4 °F 71% 30.12 in 10.0 mi North 24.2 mph 33.4 mph N/A   Overcast
3:35 PM 46.4 °F 38.3 °F 37.4 °F 71% 30.13 in 10.0 mi North 23.0 mph 31.1 mph N/A   Overcast
3:55 PM 44.6 °F 35.9 °F 35.6 °F 71% 30.14 in 10.0 mi North 23.0 mph 29.9 mph N/A   Overcast
4:15 PM 44.6 °F 35.3 °F 35.6 °F 71% 30.14 in 10.0 mi NNE 26.5 mph 34.5 mph N/A   Overcast
4:35 PM 44.6 °F 35.3 °F 35.6 °F 71% 30.14 in 10.0 mi North 26.5 mph 34.5 mph N/A   Overcast
4:55 PM 44.6 °F 35.5 °F 35.6 °F 71% 30.14 in 10.0 mi North 25.3 mph 34.5 mph N/A   Overcast
5:15 PM 44.6 °F 36.4 °F 35.6 °F 71% 30.15 in 10.0 mi North 20.7 mph 31.1 mph N/A   Overcast
5:35 PM 44.6 °F 36.4 °F 35.6 °F 71% 30.16 in 10.0 mi North 20.7 mph 32.2 mph N/A   Overcast
5:55 PM 42.8 °F 34.5 °F 35.6 °F 76% 30.17 in 10.0 mi North 18.4 mph 31.1 mph N/A   Overcast
6:15 PM 42.8 °F 32.7 °F 35.6 °F 76% 30.18 in 10.0 mi North 27.6 mph 34.5 mph N/A   Overcast
6:35 PM 42.8 °F 33.5 °F 33.8 °F 70% 30.18 in 10.0 mi NNE 23.0 mph 31.1 mph N/A   Overcast
6:55 PM 42.8 °F 33.3 °F 35.6 °F 76% 30.20 in 10.0 mi North 24.2 mph 29.9 mph N/A   Overcast
7:15 PM 41.0 °F 30.5 °F 33.8 °F 76% 30.21 in 10.0 mi North 26.5 mph 34.5 mph N/A   Overcast
7:35 PM 41.0 °F 30.9 °F 35.6 °F 81% 30.22 in 10.0 mi North 24.2 mph 31.1 mph N/A   Overcast
7:55 PM 39.2 °F 29.6 °F 35.6 °F 87% 30.23 in 7.0 mi North 19.6 mph 29.9 mph N/A   Overcast
8:15 PM 37.4 °F 27.2 °F 33.8 °F 87% 30.24 in 7.0 mi North 19.6 mph 32.2 mph N/A   Overcast
8:35 PM 37.4 °F 27.2 °F 33.8 °F 87% 30.25 in 10.0 mi North 19.6 mph 29.9 mph N/A   Overcast
8:55 PM 37.4 °F 26.1 °F 33.8 °F 87% 30.27 in 10.0 mi NNE 24.2 mph 33.4 mph N/A   Overcast
9:15 PM 37.4 °F 27.2 °F 33.8 °F 87% 30.28 in 10.0 mi NNE 19.6 mph 29.9 mph N/A   Overcast
9:35 PM 37.4 °F 26.6 °F 33.8 °F 87% 30.30 in 10.0 mi North 21.9 mph 33.4 mph N/A   Overcast
10:15 PM 35.6 °F 23.4 °F 33.8 °F 93% 30.34 in 10.0 mi North 25.3 mph 34.5 mph N/A   Overcast
10:35 PM 35.6 °F 22.5 °F 32.0 °F 87% 30.34 in 10.0 mi North 29.9 mph 38.0 mph N/A   Overcast
10:55 PM 35.6 °F 23.4 °F 32.0 °F 87% 30.36 in 10.0 mi North 25.3 mph 38.0 mph N/A   Overcast
11:15 PM 35.6 °F 23.0 °F 32.0 °F 87% 30.37 in 7.0 mi North 27.6 mph 35.7 mph N/A   Overcast
11:35 PM 35.6 °F 24.2 °F 32.0 °F 87% 30.37 in 10.0 mi North 21.9 mph 34.5 mph N/A   Overcast
11:55 PM 35.6 °F 23.0 °F 32.0 °F 87% 30.37 in 10.0 mi North 27.6 mph 36.8 mph N/A   Overcast